Stations météo

Publicité
Nimes/Garons, France (7646): Température de l'air & dewpoint: 14.08.2017 19:00:00 - 20.08.2017 19:00:00 (CEST)Nimes/Garons, France (7646): Vitesse du vent & gusts: 14.08.2017 19:00:00 - 20.08.2017 19:00:00 (CEST)Nimes/Garons, France (7646): Direction du vent: 14.08.2017 19:00:00 - 20.08.2017 19:00:00 (CEST)Nimes/Garons, France (7646): reduced air pressure: 14.08.2017 19:00:00 - 20.08.2017 19:00:00 (CEST)Nimes/Garons, France (7646): visibility: 14.08.2017 19:00:00 - 20.08.2017 19:00:00 (CEST)Nimes/Garons, France (7646): Quantités de précipitations: 14.08.2017 19:00:00 - 20.08.2017 19:00:00 (CEST)
Date & Time tt [°C] td [°C] ff [km/h] ff [knt] fx [km/h] fx [knt] dd ppp [hPa] vv [km] rr [mm]
20.08.2017 19:00:00 27,1 6,5 25 14 42 23 NNE 1018,0 30 0,0
20.08.2017 18:00:00 28,6 6,6 26 14 50 27 N 1018,2 21 0,0
20.08.2017 17:00:00 29,1 5,8 29 16 51 28 N 1018,0 19 0,0
20.08.2017 16:00:00 28,8 5,0 31 17 60 33 N 1018,2 19 0,0
20.08.2017 15:00:00 28,2 4,5 31 17 61 33 N 1018,5 19 0,0
20.08.2017 14:00:00 27,7 4,7 37 20 60 32 N 1018,9 21 0,0
20.08.2017 13:00:00 26,3 5,8 33 18 56 31 N 1019,5 23 0,0
20.08.2017 12:00:00 24,4 6,2 33 18 60 32 N 1020,1 24 0,0
20.08.2017 11:00:00 22,6 6,4 33 18 61 33 N 1020,6 25 0,0
20.08.2017 10:00:00 21,4 6,1 36 19 54 29 N 1020,8 32 0,0
20.08.2017 09:00:00 19,8 5,8 30 16 47 25 NNW 1020,6 40 0,0
20.08.2017 08:00:00 18,6 6,1 23 13 43 23 NNW 1020,8 46 0,0
20.08.2017 07:00:00 17,9 5,8 29 15 50 27 NNW 1020,2 60 0,0
20.08.2017 06:00:00 17,8 5,7 22 12 35 19 N 1020,1 60 0,0
20.08.2017 05:00:00 17,6 5,8 16 9 31 17 N 1020,5 60 0,0
20.08.2017 04:00:00 18,2 5,7 16 9 32 18 N 1020,6 60 0,0
20.08.2017 03:00:00 19,1 5,9 19 11 40 22 N 1020,2 60 0,0
20.08.2017 02:00:00 19,9 5,9 23 12 36 20 N 1019,9 60 0,0
20.08.2017 01:00:00 20,5 6,1 18 10 38 20 N 1020,0 60 0,0
20.08.2017 00:00:00 21,4 6,9 22 12 46 25 N 1019,8 60 0,0
19.08.2017 23:00:00 22,0 7,8 22 12 44 24 N 1019,5 60 0,0
19.08.2017 22:00:00 22,4 7,0 19 10 35 19 N 1018,8 60 0,0
19.08.2017 21:00:00 23,5 6,3 24 13 43 23 NNE 1018,1 60 0,0
19.08.2017 20:00:00 25,5 7,1 22 12 45 24 NNE 1017,3 35 0,0
19.08.2017 19:00:00 27,7 7,5 24 13 42 23 NNE 1016,4 41 0,0
19.08.2017 18:00:00 29,1 8,2 25 14 42 23 NNE 1016,1 42 0,0
19.08.2017 17:00:00 30,1 9,0 26 14 39 21 NNE 1016,1 56 0,0
19.08.2017 16:00:00 31,5 6,5 20 11 35 19 N 1016,2 57 0,0
19.08.2017 15:00:00 30,6 7,7 15 8 36 20 N 1016,9 58 0,0
19.08.2017 14:00:00 29,5 6,8 18 10 36 19 N 1017,2 35 0,0
19.08.2017 13:00:00 28,0 9,8 19 10 36 19 N 1017,8 35 0,0
19.08.2017 12:00:00 26,2 10,8 19 11 39 21 N 1018,0 37 0,0
19.08.2017 11:00:00 24,9 11,1 27 14 42 23 N 1018,5 41 0,0
19.08.2017 10:00:00 23,8 13,1 24 13 39 21 N 1018,6 48 0,0
19.08.2017 09:00:00 22,1 13,4 20 11 35 19 NNW 1018,7 49 0,0
19.08.2017 08:00:00 21,0 13,4 16 9 32 17 NNW 1018,4 56 0,0
19.08.2017 07:00:00 20,2 13,6 14 7 30 16 N 1018,1 60 0,0
19.08.2017 06:00:00 21,0 13,9 21 12 34 18 N 1017,3 60 0,0
19.08.2017 05:00:00 21,2 14,4 14 8 27 15 N 1017,0 60 0,0
19.08.2017 04:00:00 21,8 14,7 10 6 26 14 N 1017,4 60 0,0
19.08.2017 03:00:00 22,0 14,9 14 7 24 13 N 1017,0 60 0,0
19.08.2017 02:00:00 23,0 15,6 13 7 32 17 N 1016,6 60 0,0
19.08.2017 01:00:00 23,6 16,4 22 12 36 20 N 1016,3 60 0,0
19.08.2017 00:00:00 24,1 16,6 15 8 26 14 NNE 1016,0 60 0,0
18.08.2017 23:00:00 23,5 21,2 7 4 12 6 NNE 1016,1 21 0,0
18.08.2017 22:00:00 24,0 21,1 3 2 9 5 S 1015,3 22 0,0
18.08.2017 21:00:00 24,5 20,8 8 5 18 10 S 1015,0 27 0,0
18.08.2017 20:00:00 25,8 20,6 10 5 25 13 S 1014,7 18 0,0
18.08.2017 19:00:00 29,2 18,0 17 9 31 17 S 1014,2 50 0,0
18.08.2017 18:00:00 30,2 17,3 15 8 33 18 SSW 1014,4 41 0,0
18.08.2017 17:00:00 30,5 15,8 16 9 35 19 SSW 1014,6 49 0,0
18.08.2017 16:00:00 31,5 17,0 16 9 35 19 SSW 1014,9 50 0,0
18.08.2017 15:00:00 32,3 16,2 20 11 34 19 SSW 1014,6 45 0,0
18.08.2017 14:00:00 32,4 14,5 19 10 32 17 S 1014,9 54 0,0
18.08.2017 13:00:00 32,4 16,7 16 9 31 17 S 1015,0 57 0,0
18.08.2017 12:00:00 31,7 16,8 14 8 23 13 SSE 1015,5 42 0,0
18.08.2017 11:00:00 29,6 16,4 10 6 22 12 SSE 1016,1 42 0,0
18.08.2017 10:00:00 27,8 16,7 11 6 16 9 E 1016,1 32 0,0
18.08.2017 09:00:00 25,8 16,9 6 3 12 7 ENE 1016,4 34 0,0
18.08.2017 08:00:00 23,0 17,5 4 2 8 4 NNE 1016,4 37 0,0
18.08.2017 07:00:00 19,4 16,4 2 1 7 4 NE 1016,5 20 0,0
18.08.2017 06:00:00 18,6 16,2 4 2 5 3 NNE 1016,2 26 0,0
18.08.2017 05:00:00 20,2 16,8 0 0 9 5 N 1016,0 24 0,0
18.08.2017 04:00:00 20,5 16,7 4 2 11 6 NNE 1016,1 36 0,0
18.08.2017 03:00:00 21,9 17,5 9 5 12 6 SE 1016,0 43 0,0
18.08.2017 02:00:00 22,2 16,9 4 2 14 8 E 1016,7 47 0,0
18.08.2017 01:00:00 23,1 17,1 8 5 10 6 ESE 1016,6 50 0,0
18.08.2017 00:00:00 23,6 15,9 4 2 19 10 E 1016,7 57 0,0
17.08.2017 23:00:00 24,1 15,6 4 2 15 8 NE 1016,6 59 0,0
17.08.2017 22:00:00 26,3 16,0 5 3 13 7 SW 1016,7 60 0,0
17.08.2017 21:00:00 27,5 16,1 5 3 18 10 SW 1016,5 60 0,0
17.08.2017 20:00:00 30,5 15,8 10 6 23 13 WSW 1015,9 55 0,0
17.08.2017 19:00:00 32,1 16,0 15 8 26 14 SSW 1015,7 42 0,0
17.08.2017 18:00:00 32,2 15,7 17 9 34 18 SW 1015,8 37 0,0
17.08.2017 17:00:00 33,6 16,5 18 10 32 18 WSW 1015,9 42 0,0
17.08.2017 16:00:00 34,5 16,8 13 7 29 16 SSW 1016,0 50 0,0
17.08.2017 15:00:00 35,9 14,5 8 4 21 11 WNW 1016,3 51 0,0
17.08.2017 14:00:00 34,1 15,5 8 4 24 13 NW 1017,0 47 0,0
17.08.2017 13:00:00 32,4 15,8 10 6 21 11 N 1017,5 48 0,0
17.08.2017 12:00:00 31,3 16,9 11 6 27 15 NE 1018,0 49 0,0
17.08.2017 11:00:00 29,7 16,8 14 7 32 18 N 1018,4 41 0,0
17.08.2017 10:00:00 27,4 16,7 17 9 29 16 NNE 1018,3 45 0,0
17.08.2017 09:00:00 25,4 16,5 11 6 18 10 N 1018,3 49 0,0
17.08.2017 08:00:00 23,4 16,4 7 4 13 7 N 1018,2 60 0,0
17.08.2017 07:00:00 19,7 15,3 7 4 15 8 NNW 1017,9 45 0,0
17.08.2017 06:00:00 21,9 15,5 9 5 14 8 NW 1017,5 51 0,0
17.08.2017 05:00:00 22,4 15,5 10 5 16 9 NW 1017,3 53 0,0
17.08.2017 04:00:00 22,4 15,3 11 6 18 10 NNW 1017,6 55 0,0
17.08.2017 03:00:00 21,8 14,7 7 4 12 7 NNW 1017,6 56 0,0
17.08.2017 02:00:00 20,8 15,1 6 3 11 6 N 1017,8 49 0,0
17.08.2017 01:00:00 21,3 15,4 5 3 6 4 NNW 1018,0 59 0,0
17.08.2017 00:00:00 21,3 14,0 5 3 10 5 N 1018,0 60 0,0
16.08.2017 23:00:00 23,1 14,6 4 2 16 9 W 1018,2 59 0,0
16.08.2017 22:00:00 23,9 14,6 6 3 14 8 S 1017,9 60 0,0
16.08.2017 21:00:00 26,0 15,4 7 4 15 8 WSW 1017,6 60 0,0
16.08.2017 20:00:00 29,6 15,0 8 5 17 9 WSW 1017,0 59 0,0
16.08.2017 19:00:00 30,7 15,5 11 6 22 12 WSW 1016,6 51 0,0
16.08.2017 18:00:00 30,9 15,3 13 7 29 16 SSW 1016,8 60 0,0
16.08.2017 17:00:00 32,7 11,8 5 3 16 9 E 1017,0 60 0,0
16.08.2017 16:00:00 32,9 13,0 7 4 29 15 N 1017,2 20 0,0
16.08.2017 15:00:00 30,7 14,3 6 4 16 9 N 1017,9 58 0,0
16.08.2017 14:00:00 30,2 14,7 3 2 17 9 NW 1017,9 50 0,0
16.08.2017 13:00:00 30,0 14,9 9 5 20 11 NW 1018,3 47 0,0
16.08.2017 12:00:00 29,0 15,2 8 5 19 10 ENE 1018,6 60 0,0
16.08.2017 11:00:00 27,4 15,7 13 7 23 13 NNE 1019,0 29 0,0
16.08.2017 10:00:00 24,9 15,8 13 7 20 11 NNE 1019,2 49 0,0
16.08.2017 09:00:00 22,8 14,9 10 5 16 9 N 1019,5 60 0,0
16.08.2017 08:00:00 19,9 13,4 8 4 13 7 N 1019,4 10 0,0
16.08.2017 07:00:00 16,0 12,2 5 3 9 5 NNW 1019,4 60 0,0
16.08.2017 06:00:00 16,2 12,0 4 2 7 4 NW 1019,2 60 0,0
16.08.2017 05:00:00 17,1 12,2 3 2 12 7 NNW 1018,9 60 0,0
16.08.2017 04:00:00 15,5 12,1 9 5 13 7 NNW 1019,2 59 0,0
16.08.2017 03:00:00 17,3 13,4 5 3 10 6 NW 1019,9 41 0,0
16.08.2017 02:00:00 18,7 14,4 2 1 5 3 ENE 1020,3 59 0,0
16.08.2017 01:00:00 20,3 14,6 3 2 8 4 ENE 1020,4 60 0,0
16.08.2017 00:00:00 19,8 14,4 8 4 11 6 NE 1020,2 60 0,0
15.08.2017 23:00:00 19,6 14,2 8 4 13 7 NNW 1020,5 60 0,0
15.08.2017 22:00:00 20,5 14,4 8 5 13 7 S 1020,2 60 0,0
15.08.2017 21:00:00 22,3 14,2 9 5 13 7 SSE 1019,3 60 0,0
15.08.2017 20:00:00 24,9 12,8 10 5 23 13 SSE 1018,7 50 0,0
15.08.2017 19:00:00 26,3 11,2 16 9 31 17 SSW 1019,3 45 0,0
15.08.2017 18:00:00 28,4 10,6 17 9 33 18 SSW 1019,5 37 0,0
15.08.2017 17:00:00 29,6 10,2 17 9 29 16 SSW 1019,0 54 0,0
15.08.2017 16:00:00 30,6 14,7 12 6 29 15 SSW 1018,7 60 0,0
15.08.2017 15:00:00 30,1 14,2 15 8 27 15 S 1019,0 60 0,0
15.08.2017 14:00:00 29,3 13,1 10 6 22 12 S 1019,2 9 0,0
15.08.2017 13:00:00 28,5 13,6 9 5 24 13 SSE 1019,7 60 0,0
15.08.2017 12:00:00 26,8 15,5 9 5 17 9 E 1020,2 60 0,0
15.08.2017 11:00:00 25,7 16,8 4 2 13 7 N 1020,7 60 0,0
15.08.2017 10:00:00 23,6 17,8 6 3 13 7 NE 1020,7 39 0,0
15.08.2017 09:00:00 21,5 17,9 7 4 11 6 E 1021,2 17 0,0
15.08.2017 08:00:00 19,2 18,2 0 0 9 5 N 1021,0 9 0,0
15.08.2017 07:00:00 18,8 18,1 3 1 10 6 NNW 1020,7 6 0,0
15.08.2017 06:00:00 18,6 17,9 3 2 10 5 NNE 1020,0 0,2 0,0
15.08.2017 05:00:00 17,7 16,7 3 2 5 3 NE 1019,9 1,8 0,0
15.08.2017 04:00:00 18,7 17,9 5 3 9 5 ENE 1020,0 4,3 0,0
15.08.2017 03:00:00 19,3 18,5 4 2 7 4 ESE 1020,1 4,6 0,0
15.08.2017 02:00:00 19,3 18,1 2 1 10 5 SSE 1020,4 7 0,0
15.08.2017 01:00:00 19,7 18,0 7 4 12 7 SSE 1020,3 16 0,0
15.08.2017 00:00:00 20,2 18,3 8 4 13 7 SE 1020,5 19 0,0
14.08.2017 23:00:00 20,7 18,6 9 5 15 8 S 1020,5 24 0,0
14.08.2017 22:00:00 20,8 18,6 11 6 16 9 S 1020,1 32 0,0
14.08.2017 21:00:00 21,8 17,4 11 6 18 10 S 1019,2 44 0,0
14.08.2017 20:00:00 24,4 15,9 13 7 25 14 SSE 1018,7 60 0,0
14.08.2017 19:00:00 26,4 9,7 20 11 34 18 S 1018,4 48 0,0

tt = Température de l'air
td = dewpoint
ff = Vitesse du vent
fx = gusts
dd = Direction du vent
ppp = reduced air pressure
vv = visibility
rr = Quantités de précipitations

stations d'obs. à proximité